TimeEDT,TemperatureF,Dew PointF,Humidity,Sea Level PressureIn,VisibilityMPH,Wind Direction,Wind SpeedMPH,Gust SpeedMPH,PrecipitationIn,Events,Conditions,WindDirDegrees,DateUTC
12:54 AM,66.9,57.9,73,30.00,10.0,Calm,Calm,-,N/A,,Scattered Clouds,0,2008-07-24 04:54:00
1:54 AM,62.6,57.2,82,30.07,10.0,NW,4.6,-,N/A,,Clear,320,2008-07-24 05:54:00
2:54 AM,61.0,57.9,90,29.99,10.0,NNW,8.1,-,N/A,,Clear,330,2008-07-24 06:54:00
3:54 AM,64.0,57.9,80,30.00,10.0,North,6.9,-,N/A,,Clear,350,2008-07-24 07:54:00
4:54 AM,60.1,57.0,90,30.02,10.0,NNW,6.9,-,N/A,,Clear,330,2008-07-24 08:54:00
5:54 AM,57.9,57.0,97,30.04,10.0,Calm,Calm,-,N/A,,Clear,0,2008-07-24 09:54:00
6:54 AM,55.9,54.0,93,30.07,8.0,Calm,Calm,-,N/A,,Clear,0,2008-07-24 10:54:00
7:54 AM,57.9,55.9,93,30.07,10.0,SSE,3.5,-,N/A,,Clear,160,2008-07-24 11:54:00
8:54 AM,63.0,57.9,84,30.08,10.0,SSE,3.5,-,N/A,,Clear,150,2008-07-24 12:54:00
9:54 AM,71.1,55.9,59,30.08,10.0,Variable,5.8,-,N/A,,Clear,0,2008-07-24 13:54:00
10:54 AM,73.9,50.0,43,30.07,10.0,North,9.2,-,N/A,,Clear,10,2008-07-24 14:54:00
11:54 AM,77.0,48.0,36,30.08,10.0,Variable,4.6,-,N/A,,Clear,0,2008-07-24 15:54:00
12:54 PM,79.0,46.9,32,30.06,10.0,Variable,5.8,-,N/A,,Clear,0,2008-07-24 16:54:00
1:54 PM,81.0,46.9,30,30.06,10.0,WNW,9.2,-,N/A,,Clear,290,2008-07-24 17:54:00
2:54 PM,81.0,46.0,29,30.04,10.0,Calm,Calm,-,N/A,,Clear,0,2008-07-24 18:54:00
3:54 PM,82.4,50.0,32,30.11,10.0,Variable,6.9,-,N/A,,Clear,0,2008-07-24 19:54:00
4:54 PM,82.0,50.0,33,30.03,10.0,SSW,6.9,-,N/A,,Clear,200,2008-07-24 20:54:00
5:54 PM,81.0,57.0,44,30.05,10.0,SSW,8.1,-,N/A,,Mostly Cloudy,200,2008-07-24 21:54:00
6:54 PM,78.1,57.0,48,30.06,10.0,WSW,4.6,-,N/A,,Clear,250,2008-07-24 22:54:00
7:54 PM,77.0,51.1,40,30.07,10.0,NNW,8.1,-,N/A,,Partly Cloudy,330,2008-07-24 23:54:00
8:54 PM,73.0,52.0,48,30.07,10.0,NW,5.8,-,N/A,,Clear,310,2008-07-25 00:54:00
9:54 PM,72.0,52.0,49,30.09,10.0,NNW,6.9,-,N/A,,Mostly Cloudy,330,2008-07-25 01:54:00
10:54 PM,72.0,51.1,48,30.10,10.0,North,5.8,-,N/A,,Clear,350,2008-07-25 02:54:00
11:54 PM,70.0,52.0,53,30.11,10.0,Calm,Calm,-,N/A,,Clear,0,2008-07-25 03:54:00